{"data":{"norad_id":52295,"intl_designator":"2022-041AL","name":"STARLINK-3765","alt_names":[],"object_type":"PAYLOAD","status":"ACTIVE","operator":null,"country":"US","launch_date":"2022-04-21","launch_site_code":"AFETR","launch_vehicle":null,"mission":null,"orbit_class":"UNKNOWN","rcs_meters":null,"size_class":null,"mass_kg":null,"dimensions":null,"purposes":["comms"],"wikipedia_slug":null,"has_3d_model":false,"image_url":null,"decayed_at":null,"tle_current":{"epoch":"2026-09-20T03:15:27.289728Z","epoch_age_seconds":90994,"freshness":"FRESH","line1":"1 52295U 22041AL  26263.13573252  .00778858  29344-3  14540-2 0  9993","line2":"2 52295  53.1562 280.9716 0000846  57.3416 302.7697 16.00462351244208","mean_motion":16.00462351,"eccentricity":8.46e-5,"inclination_deg":53.1562,"raan_deg":280.9716,"arg_perigee_deg":57.3416,"mean_anomaly_deg":302.7697,"bstar":0.001454,"rev_number":24420,"period_min":89.974000269376,"perigee_km":272.57472214044,"apogee_km":273.7001177723,"semimajor_km":6651.2744199564,"source":"CELESTRAK","updated_at":"2026-09-20T09:00:40.017245Z"}}}